CZ-4B DEB, 40531

Orbit data source: Space-Track

CZ-4B DEB, 40531 is space debris in LEO originally from a launch on Fri, 25 Oct 2013 UTC launched from the Jiuquan Satellite Launch Center, China (JSC). Debris objects in space refer to the collection of defunct objects orbiting the Earth. Examples of debris include non-operational satellites, rocket bodies, and fragments generated from explosions, collisions, or faulty payload assembly.

Loading next visibility...
Identifier
40531, 2013-057D
Orbit
LEO
Last TLE update
10 hours ago
Origin
Manufacturer
SAST
Mission
Spacecraft
Bus & Motor
Unknown
Mass
Unknown
Launch date (UTC)
2013-10-25 (12 years ago)
Launch vehicle
Unknown
Launch site
Jiuquan Satellite Launch Center, China (JSC)
Object type
Payload
Rocket body
Debris
Shape & HBR
Unknown
Radar Cross Section
Small (<0.1 m²)

Expand to show TLE details & history

TLE from 10 hours ago
0 CZ-4B DEB
1 40531U 13057D   25175.26909468  .00003824  00000-0  71166-3 0  9994
2 40531  74.9693 154.3292 0190892 347.9018  11.7594 14.54257459612912
Epoch: 2025-06-24T06:27Z
TLE epoch observation values (Epoch: 2025-06-24T06:27:29.78Z)
Latitude
-0.00004°
Longitude
144.78766°
Altitude
582.051 km
Speed
7.64 km/s
True Right ascension
10h 17m 19s
True Declination
0° 00' 00"
Sunlit
Object was in daylight at epoch
Visualization orbit readout
Latitude
-8.99685°
Longitude
141.63137°
Altitude
581.001 km
Speed
7.641 km/s
Apparent Right ascension
12h 14m 58s
Apparent Declination
-29° 47' 02"
Sunlit
Object is in daylight
Visualization observer readout
Local Sidereal Time
03:31:13
Azimuth
91.405° ESE
Elevation
-49.017°
Doppler factor
1
Orbital elements
Apogee altitude
844.595 km
Perigee altitude
574.008 km
Semi-major axis
7,087.439 km
Eccentricity
0.01909
Inclination
74.9693°
RAAN
154.3292°
Arg. of periapsis
347.9018°
True anomaly
Unknown
Mean anomaly
11.7594°
Eccentric anomaly
Unknown
Mean motion
3.63755 °/min
Orbital period
98.97 mins
BSTAR
0.00071166
Loading maneuver chart data...
Loading SW <> Apogee altitude chart data...
Loading historical data...
Loading historical data...
Loading historical data...
Loading historical data...
Loading historical data...
Loading historical data...
Loading historical data...
Other satellites on launch #57 in the year 2013 (2013-10-25 UTC)

CZ-4B DEB Visibility forecast

Observer location: undefined°, undefined°

Span
Click to sort rows by Start time (UTC) header in descending order
Start Az.
Max El. time (UTC)
Max El. Az.
Max El.
End time (UTC)
End Az.
7 mins2025-06-24 23:05:24.574Z157.046° SSE2025-06-24 23:08:24.574Z107.031° ESE26.764°2025-06-24 23:12:24.574Z39.922° NE
5 mins2025-06-25 00:47:24.574Z261.44° W2025-06-25 00:49:24.574Z297.417° NW21.294°2025-06-25 00:52:24.574Z344.658° N
8 mins2025-06-25 09:26:24.574Z3.53° NNE2025-06-25 09:29:24.574Z55.21° ENE35.868°2025-06-25 09:34:24.574Z138.706° SSE
7 mins2025-06-25 11:07:24.574Z301.542° NW2025-06-25 11:10:24.574Z260.521° W21.047°2025-06-25 11:14:24.574Z214.545° SW
|